User: anonymous   Login
Location: Kopernik Observatory
(42.0014°N, 76.0372°W)
Time: 18:55:12
(UTC-04:00)
Language:

CENTAUR R/B - Orbit

View from above orbital plane
View from above orbital plane
View from above satellite
View from above satellite

Ground track
Ground track

The orbit data is extracted from the following two-line orbital elements,

1 26906U 01040B   17113.84949094 0.00000050  00000-0  59319-4 0    07
2 26906  63.4525 112.6646 0353000 342.2434  17.7566 13.44009017    00
Epoch (UTC): 23 April 2017 20:23:16
Eccentricity: 0.0353000
inclination: 63.4525°
perigee height: 830 km
apogee height: 1358 km
right ascension of ascending node: 112.6646°
argument of perigee: 342.2434°
revolutions per day: 13.44009017
mean anomaly at epoch: 17.7566°
orbit number at epoch: 0

The dashed part of the orbit path shows where the satellite is in the earth's shadow,  

DLR